Muncie, IN

7:17 PM EST on November 18, 2017 (GMT -0500)
Delaware County-Johnson

Weather History for KMIE - November, 2012

Change the Weather History Date:

Tuesday, November 27, 2012

  Actual Average Record
Temperature  
Mean Temperature 32 °F 38 °F  
Max Temperature 37 °F 45 °F 65 °F (1990)
Min Temperature 26 °F 30 °F 12 °F (1991)
Degree Days  
Heating Degree Days 33 28  
Month to date heating degree days 649 586  
Since 1 July heating degree days 1180 1050  
Cooling Degree Days 0 0  
Month to date cooling degree days 0 0  
Year to date cooling degree days 1149 955  
Moisture  
Dew Point 23 °F    
Average Humidity 72    
Maximum Humidity 92    
Minimum Humidity 52    
Precipitation  
Precipitation 0.00 in 0.12 in 1.25 in (1966)
Month to date precipitation 0.92 3.12  
Year to date precipitation 30.57 36.91  
Sea Level Pressure  
Sea Level Pressure 30.33 in    
Wind  
Wind Speed 4 mph (NNW)    
Max Wind Speed 13 mph    
Max Gust Speed 17 mph    
Visibility 8 miles    
Events      
T = Trace of Precipitation, MM = Missing Value Source: NWS Daily Summary

Daily Weather History Graph

Daily Weather History Graph

Search for Another Location

Airport or City:

Trip Planner

Search our weather history database for the weather conditions in past years. The results will help you decide how hot, cold, wet, or windy it might be!

Date:

Astronomy

Nov. 27, 2012 Rise Set
Actual Time 7:41 AM EST 5:17 PM EST
Civil Twilight 7:11 AM EST 5:47 PM EST
Nautical Twilight 6:37 AM EST 6:20 PM EST
Astronomical Twilight 6:05 AM EST 6:53 PM EST
Moon 4:48 PM EST (11/27) 6:45 AM EST (11/27)
Length of Visible Light 10h 35m
Length of Day
9h 36m
Waxing Gibbous, 99% of the Moon is Illuminated
Nov 27
Waxing Gibbous
Nov 28
Full
Dec 6
Last Quarter
Dec 13
New
Dec 20
First Quarter

Hourly Weather History & Observations

Time (EST) Temp. Windchill Dew Point Humidity Pressure Visibility Wind Dir Wind Speed Gust Speed Precip Events Conditions
12:04 AM 30.2 °F 22.6 °F 26.6 °F 86% 30.29 in 9.0 mi North 8.1 mph - 0.00 in   Overcast
12:53 AM 28.9 °F 23.9 °F 26.1 °F 89% 30.30 in 9.0 mi North 4.6 mph - 0.00 in   Overcast
1:53 AM 30.0 °F 23.2 °F 27.0 °F 88% 30.30 in 8.0 mi North 6.9 mph - N/A   Overcast
2:53 AM 30.0 °F 24.1 °F 27.0 °F 88% 30.29 in 8.0 mi NNE 5.8 mph - N/A   Overcast
3:29 AM 30.2 °F 23.4 °F 26.6 °F 86% 30.28 in 7.0 mi North 6.9 mph - N/A   Overcast
3:53 AM 30.0 °F 24.1 °F 26.1 °F 85% 30.30 in 6.0 mi North 5.8 mph - N/A   Mostly Cloudy
4:53 AM 28.0 °F - 25.0 °F 88% 30.30 in 5.0 mi Calm Calm - N/A   Scattered Clouds
5:53 AM 26.1 °F - 24.1 °F 92% 30.31 in 2.5 mi Calm Calm - N/A   Partly Cloudy
6:19 AM 26.6 °F - 24.8 °F 93% 30.30 in 4.0 mi Calm Calm - N/A   Overcast
6:53 AM 28.0 °F - 25.0 °F 88% 30.33 in 4.0 mi Calm Calm - N/A   Overcast
7:53 AM 28.9 °F - 26.1 °F 89% 30.34 in 4.0 mi Calm Calm - N/A   Overcast
8:53 AM 30.0 °F - 27.0 °F 88% 30.38 in 4.0 mi Calm Calm - N/A   Overcast
9:53 AM 33.1 °F 28.7 °F 23.0 °F 66% 30.38 in 10.0 mi NNE 4.6 mph - N/A   Overcast
10:27 AM 32.0 °F 28.7 °F 19.4 °F 60% 30.36 in 10.0 mi NE 3.5 mph - N/A   Mostly Cloudy
10:53 AM 33.1 °F 26.9 °F 19.9 °F 59% 30.40 in 10.0 mi North 6.9 mph - N/A   Mostly Cloudy
11:07 AM 33.8 °F 30.8 °F 19.4 °F 56% 30.39 in 10.0 mi NNE 3.5 mph - N/A   Scattered Clouds
11:53 AM 35.1 °F 28.6 °F 19.9 °F 54% 30.39 in 10.0 mi North 8.1 mph - N/A   Mostly Cloudy
12:53 PM 36.0 °F 31.1 °F 19.9 °F 52% 30.35 in 10.0 mi North 5.8 mph - N/A   Partly Cloudy
1:53 PM 34.0 °F 31.0 °F 19.9 °F 56% 30.34 in 10.0 mi Variable 3.5 mph - N/A   Partly Cloudy
2:53 PM 36.0 °F 29.6 °F 21.0 °F 55% 30.31 in 10.0 mi NW 8.1 mph - N/A   Mostly Cloudy
3:53 PM 35.1 °F 30.1 °F 21.0 °F 57% 30.30 in 10.0 mi NW 5.8 mph - N/A   Clear
4:53 PM 34.0 °F - 21.0 °F 59% 30.31 in 10.0 mi Calm Calm - N/A   Clear
5:53 PM 33.1 °F 30.0 °F 21.0 °F 61% 30.31 in 10.0 mi SW 3.5 mph - N/A   Clear
6:53 PM 33.1 °F 30.0 °F 21.0 °F 61% 30.32 in 10.0 mi SW 3.5 mph - N/A   Clear
7:53 PM 30.0 °F - 19.9 °F 66% 30.32 in 10.0 mi Calm Calm - N/A   Clear
8:53 PM 30.0 °F 26.5 °F 19.9 °F 66% 30.32 in 10.0 mi SW 3.5 mph - N/A   Clear
9:53 PM 28.9 °F 25.2 °F 19.9 °F 69% 30.32 in 10.0 mi SW 3.5 mph - N/A   Clear
10:53 PM 28.9 °F 25.2 °F 19.9 °F 69% 30.32 in 10.0 mi WSW 3.5 mph - N/A   Clear
11:53 PM 28.0 °F 24.2 °F 19.9 °F 72% 30.31 in 10.0 mi SW 3.5 mph - N/A   Clear